Location: Antioch
(38.0049°N, 121.8058°W)
Time: 03:27:22
(UTC+00:00)

Cosmos 1354 Rocket - Pass Details

Date: 18 May 2026
Orbit: 761 x 778 km, 74.0° (Epoch: 9 June)

Event Time Altitude Azimuth Distance (km) Brightness Sun altitude
Rises 05:09:08 0° 352° (N) 3,237 8.1 -19.3°
Reaches altitude 10° 05:11:49 10° 4° (N) 2,305 7.1 -19.7°
Maximum altitude 05:16:21 29° 64° (ENE) 1,373 5.1 -20.3°
Enters shadow 05:17:26 27° 86° (E) 1,443 5.1 -20.5°
